Flag for U.S.A. Weather past 2 weeks in Lubbock, Texas, U.S.A.

Now
84 °F

Sunny.


Feels Like: 82 °F
Forecast: 54 / 85 °F
Wind: 10 mph from South

Location: Lubbock International Airport

Current Time: Oct 25, 2014 at 4:27:21 PM

Latest Report: Oct 25, 2014 at 3:53 PM


Visibility: 10 mi

Pressure: 29.99 "Hg

Humidity: 30%

Dew point: 49 °F

Location of LubbockLocation

Historic Weather in Lubbock — Graph

°F

Lubbock temperature yesterday

Maximum temperature yesterday: 85 °F (at 3:53 PM)
Minimum temperature yesterday: 50 °F (at 6:53 AM)
Average temperature yesterday: 67 °F

Past Weeks' High & Low Weather Summary

 TemperatureHumidityPressure
High91 °F (Oct 16, 4:53 PM)97% (Oct 23, 8:53 AM)30.20 "Hg (Oct 23, 8:53 AM)
Low38 °F (Oct 14, 7:53 AM)14% (Oct 16, 4:53 PM)29.49 "Hg (Oct 12, 4:53 PM)
Average61 °F64%29.99 "Hg
* Reported Oct 10 2:53 PM — Oct 25 2:53 PM, Lubbock, Weather by CustomWeather, © 2014

Note: Actual official high and low records may vary slightly from our data, if they occured in-between our weather recording intervals... More about our weather records

Advertising

Lubbock weather history for previous 24 hours

 ConditionsComfort  
Time TempWeatherWind HumidityBarometerVisibility
2:53 PM
Oct 25
84 °FSunny.12 mph32%30.00 "Hg10 mi
1:53 PM83 °FSunny.9 mph33%30.03 "Hg10 mi
12:53 PM81 °FSunny.10 mph39%30.06 "Hg10 mi
11:53 AM77 °FSunny.9 mph48%30.08 "Hg10 mi
10:53 AM72 °FSunny.12 mph61%30.09 "Hg10 mi
9:53 AM65 °FSunny.12 mph76%30.11 "Hg10 mi
8:53 AM58 °FClear.5 mph81%30.10 "Hg10 mi
7:53 AM53 °FClear.8 mph86%30.08 "Hg10 mi
6:53 AM54 °FClear.8 mph83%30.06 "Hg10 mi
5:53 AM53 °FClear.7 mph83%30.05 "Hg10 mi
4:53 AM54 °FClear.6 mph80%30.04 "Hg10 mi
3:53 AM55 °FClear.7 mph77%30.04 "Hg10 mi
2:53 AM56 °FClear.6 mph75%30.04 "Hg10 mi
1:53 AM61 °FClear.6 mph65%30.03 "Hg10 mi
12:53 AM61 °FClear.8 mph67%30.03 "Hg10 mi
11:53 PM
Oct 24
61 °FClear.No wind70%30.05 "Hg10 mi
10:53 PM65 °FClear.6 mph61%30.04 "Hg10 mi
9:53 PM64 °FClear.9 mph63%30.04 "Hg10 mi
8:53 PM68 °FClear.8 mph55%30.04 "Hg10 mi
7:53 PM73 °FSunny.9 mph46%30.02 "Hg10 mi
6:53 PM76 °FPassing clouds.7 mph40%30.01 "Hg10 mi
5:53 PM83 °FSunny.14 mph30%29.99 "Hg10 mi
4:53 PM85 °FPassing clouds.13 mph28%29.98 "Hg10 mi
Weather by CustomWeather, © 2014

See weather overviewHow to use our weather pages